マクノート-ヒューズ彗星

130P/McNaught-Hughes (2024)

English version
Home page
Updated on October 14, 2023

---------------------------------------------------------------------

・ プロフィール

・ 軌道要素

Epoch 2023 Feb. 25.0 TT = JDT 2460000.5
T 2024 Apr. 14.80162 TT                                 Rudenko
q   1.8229542            (2000.0)            P               Q
n   0.15840727     Peri.  246.10468     +0.71799451     +0.68891955
a   3.3828752      Node    70.18195     -0.59402327     +0.68088472
e   0.4611228      Incl.    6.06302     -0.36279503     +0.24856760
P   6.22
>From 1182 observations 1991 Sept. 14-2023 Mar. 16, mean residual 0".7.
     Nongravitational parameters A1 = +0.05, A2 = +0.0002.

・ 星図

・ 光度変化

        m1 = 10.0 + 5 logΔ + 15.0 log r(t - 70)

---------------------------------------------------------------------

軌道要素はM.P.E.C. 2023-F81に掲載されたものです。
星図はステラナビゲータ Ver.10 (アストロアーツ) で作成したものです。
光度グラフはComet for Windowsで作成したものです。

---------------------------------------------------------------------

Copyright(C) Seiichi Yoshida (comet@aerith.net). All rights reserved.